OBJECT U, 42843

Orbit data source: Space-Track

You're viewing an Uncataloged Satellite

Recently launched and/or uncataloged satellites may have evolving metadata. Metadata may include but not limited to: Owner, Maufacturer, Bus, Motor, and Mission.

OBJECT U, 42843 is a satellite in SSO that was launched on Fri, 14 Jul 2017 UTC via a SOYUZ-2-1A launch vehicle from the Tyuratam Missile And Space Complex (TTMTR). Unknown objects in Earth's orbit typically refer to objects detected orbiting the Earth but have not yet been identified or cataloged. These objects could be anything from previously untracked satellites, spent rocket stages, debris from satellite collisions, or even natural meteoroids temporarily captured by Earth's gravity.

Loading next visibility...
Identifier
42843, 2017-042U
Orbit
SSO
Country
Flag of TBDTBD
Related business
None
Manufacturer
Unknown
Mission
Non-operational Commercial Meteo Radio Occ.
Bus & Motor
Unknown
Mass
Unknown
Launch date (UTC)
2017-07-14 (8 years ago)
Launch vehicle
SOYUZ-2-1A
Launch site
Tyuratam Missile And Space Complex (TTMTR)
Object type
Unknown
Shape & HBR
Box + 2 Pan, 0.3 m
Radar Cross Section
0.079 m², Medium (>0.1 m² and < 1m²)

Expand to show TLE details & history
Last TLE update: 13 hours ago

TLE from 13 hours ago
0 OBJECT U
1 42843U 17042U   25303.92843656  .00004298  00000-0  35143-3 0  9993
2 42843  97.4092 105.8004 0012428 162.0860 198.0805 14.99794080452241
Epoch: 2025-10-30T22:16Z
TLE epoch observation values (Epoch: 2025-10-30T22:16:56.918Z)
Latitude
-0.00001°
Longitude
92.08306°
Altitude
578.803 km
Speed
7.567 km/s
True Right ascension
07h 03m 12s
True Declination
0° 00' 00"
Sunlit
Object was in daylight at epoch
Visualization orbit readout
Latitude
Unknown
Longitude
Unknown
Altitude
Unknown
Speed
Unknown
Apparent Right ascension
Unknown
Apparent Declination
Unknown
Sunlit
N/A
Visualization observer readout
Local Sidereal Time
06:42:23
Azimuth
Unknown
Elevation
Unknown
Doppler factor
Unknown
Orbital elements
Apogee altitude
573.153 km
Perigee altitude
555.897 km
Semi-major axis
6,942.662 km
Eccentricity
0.00124
Inclination
97.4092°
RAAN
105.8004°
Arg. of periapsis
162.086°
True anomaly
198.03637°
Mean anomaly
198.0805°
Eccentric anomaly
198.05843°
Mean motion
3.75192 °/min
Orbital period
95.95 mins
BSTAR
0.00035143
Loading maneuver chart data...
Computing Atmospheric mass density...

Documentation

Showing up to 5 results
|